| time (UTC) | temp F | wind direction | speed knots | gust knots | rain 1hr in | rain 24hr in | rain mn in | humidity % | barometer mb |
| 20260505041445 | 58 | 45 | 1.7 | 2.6 | 0.00 | 0.00 | 0.00 | 67 | 1010.1 |
| 20260505041441 | 58 | 45 | 1.7 | 2.6 | 0.00 | 0.00 | 0.00 | 67 | 1010.1 |
| 20260505041001 | 57 | 45 | 1.7 | 2.6 | 0.00 | 0.00 | 0.00 | 67 | 1010.2 |
| 20260505040820 | 57 | 45 | 2.6 | 3.5 | 0.00 | 0.00 | 0.00 | 67 | 1010.2 |
| 20260505040525 | 57 | 45 | 2.6 | 3.5 | 0.00 | 0.00 | 0.00 | 67 | 1010.2 |
| 20260505040520 | 57 | 45 | 2.6 | 3.5 | 0.00 | 0.00 | 0.00 | 67 | 1010.2 |
| 20260505040045 | 57 | 45 | 3.5 | 4.3 | 0.00 | 0.00 | 0.00 | 68 | 1010.2 |
| 20260505040040 | 57 | 45 | 3.5 | 4.3 | 0.00 | 0.00 | 0.00 | 68 | 1010.2 |
| 20260505035605 | 57 | 45 | 4.3 | 4.3 | 0.00 | 0.00 | 0.00 | 68 | 1010.1 |
| 20260505035600 | 57 | 45 | 4.3 | 4.3 | 0.00 | 0.00 | 0.00 | 68 | 1010.1 |
| 20260505035124 | 57 | 45 | 4.3 | 4.3 | 0.00 | 0.00 | 0.00 | 68 | 1010.1 |
| 20260505035119 | 57 | 45 | 4.3 | 4.3 | 0.00 | 0.00 | 0.00 | 68 | 1010.1 |
| 20260505034643 | 57 | 45 | 4.3 | 4.3 | 0.00 | 0.00 | 0.00 | 68 | 1010.1 |
| 20260505034639 | 57 | 45 | 4.3 | 4.3 | 0.00 | 0.00 | 0.00 | 68 | 1010.1 |
| 20260505034203 | 57 | 42 | 4.3 | 5.2 | 0.00 | 0.00 | 0.00 | 68 | 1010.1 |
| 20260505034159 | 57 | 42 | 4.3 | 5.2 | 0.00 | 0.00 | 0.00 | 68 | 1010.1 |
| 20260505033723 | 57 | 45 | 4.3 | 4.3 | 0.00 | 0.00 | 0.00 | 68 | 1010.1 |
| 20260505033719 | 57 | 45 | 4.3 | 4.3 | 0.00 | 0.00 | 0.00 | 68 | 1010.1 |
| 20260505033242 | 57 | 45 | 3.5 | 4.3 | 0.00 | 0.00 | 0.00 | 68 | 1010.2 |
| 20260505033238 | 57 | 45 | 3.5 | 4.3 | 0.00 | 0.00 | 0.00 | 68 | 1010.2 |
| 20260505032758 | 57 | 45 | 4.3 | 4.3 | 0.00 | 0.00 | 0.00 | 68 | 1010.1 |
| 20260505032318 | 57 | 45 | 3.5 | 4.3 | 0.00 | 0.00 | 0.00 | 68 | 1010.1 |
| 20260505031842 | 57 | 16 | 4.3 | 4.3 | 0.00 | 0.00 | 0.00 | 68 | 1010.2 |
| 20260505031837 | 57 | 16 | 4.3 | 4.3 | 0.00 | 0.00 | 0.00 | 68 | 1010.2 |
| 20260505031402 | 57 | 0 | 5.2 | 6.1 | 0.00 | 0.00 | 0.00 | 68 | 1010.2 |
| 20260505031357 | 57 | 0 | 5.2 | 6.1 | 0.00 | 0.00 | 0.00 | 68 | 1010.2 |
| 20260505030921 | 57 | 0 | 5.2 | 6.1 | 0.00 | 0.00 | 0.00 | 68 | 1010.2 |
| 20260505030917 | 57 | 0 | 5.2 | 6.1 | 0.00 | 0.00 | 0.00 | 68 | 1010.2 |
| 20260505030436 | 57 | 0 | 5.2 | 6.1 | 0.00 | 0.00 | 0.00 | 69 | 1010.3 |
| 20260505030001 | 57 | 0 | 6.1 | 6.1 | 0.00 | 0.00 | 0.00 | 68 | 1010.3 |
| 20260505025956 | 57 | 0 | 6.1 | 6.1 | 0.00 | 0.00 | 0.00 | 68 | 1010.3 |
| 20260505025521 | 57 | 0 | 6.1 | 6.1 | 0.00 | 0.00 | 0.00 | 68 | 1010.2 |
| 20260505025516 | 57 | 0 | 6.1 | 6.1 | 0.00 | 0.00 | 0.00 | 68 | 1010.2 |
| 20260505025040 | 57 | 0 | 5.2 | 6.1 | 0.00 | 0.00 | 0.00 | 68 | 1010.2 |
| 20260505025036 | 57 | 0 | 5.2 | 6.1 | 0.00 | 0.00 | 0.00 | 68 | 1010.2 |
| 20260505024600 | 57 | 0 | 5.2 | 5.2 | 0.00 | 0.00 | 0.00 | 69 | 1010.3 |
| 20260505024559 | 57 | 0 | 5.2 | 5.2 | 0.00 | 0.00 | 0.00 | 69 | 1010.3 |
| 20260505024555 | 57 | 0 | 5.2 | 5.2 | 0.00 | 0.00 | 0.00 | 69 | 1010.3 |
| 20260505024129 | 57 | 0 | 5.2 | 6.1 | 0.00 | 0.00 | 0.00 | 69 | 1010.4 |
| 20260505024115 | 57 | 0 | 5.2 | 6.1 | 0.00 | 0.00 | 0.00 | 69 | 1010.3 |
| 20260505023639 | 57 | 0 | 5.2 | 6.1 | 0.00 | 0.00 | 0.00 | 69 | 10.1 |
| 20260505023635 | 57 | 0 | 5.2 | 6.1 | 0.00 | 0.00 | 0.00 | 69 | 1010.4 |
| 20260505023159 | 57 | 0 | 5.2 | 6.1 | 0.00 | 0.00 | 0.00 | 69 | 1010.4 |
| 20260505023155 | 57 | 0 | 5.2 | 6.1 | 0.00 | 0.00 | 0.00 | 69 | 1010.4 |
| 20260505022719 | 57 | 0 | 5.2 | 6.1 | 0.00 | 0.00 | 0.00 | 69 | 1010.6 |
| 20260505022714 | 57 | 0 | 5.2 | 6.1 | 0.00 | 0.00 | 0.00 | 69 | 1010.6 |
| 20260505022234 | 57 | 0 | 7.0 | 9.6 | 0.00 | 0.00 | 0.00 | 69 | 1010.6 |
| 20260505021758 | 57 | 0 | 8.7 | 10.4 | 0.00 | 0.00 | 0.00 | 69 | 1010.5 |
| 20260505021754 | 57 | 0 | 8.7 | 10.4 | 0.00 | 0.00 | 0.00 | 69 | 1010.5 |
| 20260505021318 | 57 | 0 | 10.4 | 11.3 | 0.00 | 0.00 | 0.00 | 69 | 1010.6 |
| 20260505021314 | 57 | 0 | 10.4 | 11.3 | 0.00 | 0.00 | 0.00 | 69 | 1010.6 |
| 20260505020838 | 57 | 344 | 11.3 | 13.0 | 0.00 | 0.00 | 0.00 | 70 | 1010.6 |
| 20260505020833 | 57 | 344 | 11.3 | 13.0 | 0.00 | 0.00 | 0.00 | 70 | 1010.6 |
| 20260505020358 | 57 | 353 | 12.2 | 13.9 | 0.00 | 0.00 | 0.00 | 70 | 1010.6 |
| 20260505020353 | 57 | 353 | 12.2 | 13.9 | 0.00 | 0.00 | 0.00 | 70 | 1010.6 |
| 20260505015913 | 57 | 357 | 12.2 | 16.5 | 0.00 | 0.00 | 0.00 | 70 | 1010.6 |
| 20260505015433 | 56 | 351 | 8.7 | 11.3 | 0.00 | 0.00 | 0.00 | 70 | 1010.6 |
| 20260505014956 | 56 | 351 | 9.6 | 11.3 | 0.00 | 0.00 | 0.00 | 70 | 1010.6 |
| 20260505014952 | 56 | 351 | 9.6 | 11.3 | 0.00 | 0.00 | 0.00 | 70 | 1010.6 |
| 20260505014516 | 56 | 357 | 7.8 | 10.4 | 0.00 | 0.00 | 0.00 | 71 | 1010.6 |
| 20260505014513 | 56 | 357 | 7.8 | 10.4 | 0.00 | 0.00 | 0.00 | 71 | 1010.6 |
| 20260505014217 | 57 | 357 | 7.8 | 9.6 | 0.00 | 0.00 | 0.00 | 70 | 1010.7 |
| 20260505014036 | 57 | 357 | 7.8 | 9.6 | 0.00 | 0.00 | 0.00 | 70 | 1010.7 |
| 20260505014032 | 57 | 357 | 7.8 | 9.6 | 0.00 | 0.00 | 0.00 | 70 | 1010.7 |
| 20260505013551 | 57 | 356 | 7.0 | 9.6 | 0.00 | 0.00 | 0.00 | 68 | 1010.7 |
| 20260505013115 | 57 | 359 | 8.7 | 11.3 | 0.00 | 0.00 | 0.00 | 68 | 1010.7 |
| 20260505013111 | 57 | 359 | 8.7 | 11.3 | 0.00 | 0.00 | 0.00 | 68 | 1010.7 |
| 20260505012635 | 58 | 0 | 7.8 | 11.3 | 0.00 | 0.00 | 0.00 | 67 | 1010.9 |
| 20260505012631 | 58 | 0 | 7.8 | 11.3 | 0.00 | 0.00 | 0.00 | 67 | 1010.9 |
| 20260505012231 | 58 | 0 | 7.0 | 9.6 | 0.00 | 0.00 | 0.00 | 66 | 1010.8 |
| 20260505012155 | 58 | 0 | 7.0 | 9.6 | 0.00 | 0.00 | 0.00 | 66 | 1010.8 |
| 20260505012150 | 58 | 0 | 7.0 | 9.6 | 0.00 | 0.00 | 0.00 | 66 | 1010.8 |
| 20260505011714 | 58 | 0 | 6.1 | 7.8 | 0.00 | 0.00 | 0.00 | 66 | 1010.9 |
| 20260505011710 | 58 | 0 | 6.1 | 7.8 | 0.00 | 0.00 | 0.00 | 66 | 1010.9 |
| 20260505011230 | 58 | 0 | 7.0 | 7.8 | 0.00 | 0.00 | 0.00 | 66 | 1010.8 |
| 20260505010754 | 58 | 0 | 7.0 | 7.8 | 0.00 | 0.00 | 0.00 | 65 | 1010.9 |
| 20260505010749 | 58 | 0 | 7.0 | 7.8 | 0.00 | 0.00 | 0.00 | 65 | 1010.9 |
| 20260505010309 | 59 | 0 | 7.0 | 7.8 | 0.00 | 0.00 | 0.00 | 65 | 1010.9 |
| 20260505005833 | 59 | 354 | 6.1 | 8.7 | 0.00 | 0.00 | 0.00 | 65 | 1011.0 |
| 20260505005829 | 59 | 354 | 6.1 | 8.7 | 0.00 | 0.00 | 0.00 | 65 | 1011.0 |
| 20260505005352 | 59 | 0 | 4.3 | 6.1 | 0.00 | 0.00 | 0.00 | ||
| 20260505005348 | 59 | 0 | 4.3 | 6.1 | 0.00 | 0.00 | 0.00 | 65 | 1011.1 |
| 20260505004908 | 59 | 6 | 5.2 | 6.1 | 0.00 | 0.00 | 0.00 | 65 | 1011.1 |
| 20260505004428 | 59 | 6 | 5.2 | 6.1 | 0.00 | 0.00 | 0.00 | 65 | 1011.1 |
| 20260505004105 | 59 | 15 | 5.2 | 7.0 | 0.00 | 0.00 | 0.00 | 65 | 1011.1 |
| 20260505003952 | 59 | 15 | 5.2 | 7.0 | 0.00 | 0.00 | 0.00 | 65 | 1011.1 |
| 20260505003947 | 59 | 15 | 5.2 | 7.0 | 0.00 | 0.00 | 0.00 | 65 | 1011.1 |
| 20260505003507 | 58 | 13 | 6.1 | 6.1 | 0.00 | 0.00 | 0.00 | 66 | 1011.2 |
| 20260505003027 | 58 | 36 | 5.2 | 6.1 | 0.00 | 0.00 | 0.00 | 65 | 1011.2 |
| 20260505002550 | 59 | 45 | 6.1 | 6.1 | 0.00 | 0.00 | 0.00 | 65 | 1011.3 |
| 20260505002546 | 59 | 45 | 6.1 | 6.1 | 0.00 | 0.00 | 0.00 | 65 | 1011.3 |
| 20260505002238 | 58 | 45 | 6.1 | 6.1 | 0.00 | 0.00 | 0.00 | 65 | 1011.4 |
| 20260505002110 | 58 | 45 | 6.1 | 6.1 | 0.00 | 0.00 | 0.00 | 65 | 1011.4 |
| 20260505002106 | 58 | 45 | 6.1 | 6.1 | 0.00 | 0.00 | 0.00 | 65 | 1011.4 |
| 20260505001626 | 58 | 45 | 5.2 | 6.1 | 0.00 | 0.00 | 0.00 | 65 | 1011.5 |
| 20260505001145 | 58 | 45 | 5.2 | 6.1 | 0.00 | 0.00 | 0.00 | 65 | 1011.5 |
| 20260505000705 | 59 | 45 | 6.1 | 6.1 | 0.00 | 0.00 | 0.00 | 64 | 1011.6 |
| 20260505000226 | 59 | 45 | 6.1 | 7.0 | 0.00 | 0.00 | 0.00 | 65 | 1011.6 |
| 20260504235749 | 58 | 45 | 6.1 | 7.8 | 0.00 | 0.00 | 0.00 | 65 | 1011.6 |
| 20260504235744 | 58 | 45 | 6.1 | 7.8 | 0.00 | 0.00 | 0.00 | 65 | 1011.6 |
| 20260504235309 | 58 | 45 | 6.1 | 7.0 | 0.00 | 0.00 | 0.00 | 65 | 1011.6 |
| 20260504235305 | 58 | 45 | 6.1 | 7.0 | 0.00 | 0.00 | 0.00 | 65 | 1011.6 |
| 20260504234828 | 58 | 45 | 5.2 | 6.1 | 0.00 | 0.00 | 0.00 | 66 | 1011.6 |
| 20260504234824 | 58 | 45 | 5.2 | 6.1 | 0.00 | 0.00 | 0.00 | 66 | 1011.6 |
| 20260504234348 | 58 | 39 | 5.2 | 7.8 | 0.00 | 0.00 | 0.00 | 66 | 1011.8 |
| 20260504234343 | 58 | 39 | 5.2 | 7.8 | 0.00 | 0.00 | 0.00 | 66 | 1011.8 |
| 20260504233907 | 58 | 45 | 5.2 | 7.0 | 0.00 | 0.00 | 0.00 | 65 | 1011.9 |
| 20260504233903 | 58 | 45 | 5.2 | 7.0 | 0.00 | 0.00 | 0.00 | 65 | 1011.9 |
| 20260504233427 | 58 | 45 | 4.3 | 5.2 | 0.00 | 0.00 | 0.00 | 64 | 1012.0 |
| 20260504233423 | 58 | 45 | 4.3 | 5.2 | 0.00 | 0.00 | 0.00 | 64 | 1012.0 |
| 20260504232946 | 58 | 45 | 4.3 | 4.3 | 0.00 | 0.00 | 0.00 | 64 | 1012.1 |
| 20260504232942 | 58 | 45 | 4.3 | 4.3 | 0.00 | 0.00 | 0.00 | 64 | 1012.1 |
| 20260504232502 | 58 | 45 | 4.3 | 4.3 | 0.00 | 0.00 | 0.00 | 64 | 1012.2 |
| 20260504232116 | 58 | 45 | 4.3 | 4.3 | 0.00 | 0.00 | 0.00 | 64 | 1012.2 |
| 20260504232026 | 58 | 45 | 4.3 | 4.3 | 0.00 | 0.00 | 0.00 | 64 | 1012.2 |
| 20260504232021 | 58 | 45 | 4.3 | 4.3 | 0.00 | 0.00 | 0.00 | 64 | 1012.2 |
| 20260504231545 | 58 | 45 | 4.3 | 5.2 | 0.00 | 0.00 | 0.00 | 63 | 1012.3 |
| 20260504231541 | 58 | 45 | 4.3 | 5.2 | 0.00 | 0.00 | 0.00 | 63 | 1012.3 |
| 20260504231246 | 58 | 60 | 4.3 | 5.2 | 0.00 | 0.00 | 0.00 | 63 | 1012.3 |
| 20260504231105 | 58 | 60 | 4.3 | 5.2 | 0.00 | 0.00 | 0.00 | 63 | 1012.3 |
| 20260504231101 | 58 | 60 | 4.3 | 5.2 | 0.00 | 0.00 | 0.00 | 63 | 1012.3 |
| 20260504230625 | 59 | 51 | 5.2 | 6.1 | 0.00 | 0.00 | 0.00 | 65 | 1012.4 |
| 20260504230620 | 59 | 51 | 5.2 | 6.1 | 0.00 | 0.00 | 0.00 | 65 | 1012.4 |
| 20260504230216 | 59 | 75 | 5.2 | 6.1 | 0.00 | 0.00 | 0.00 | 65 | 1012.5 |
| 20260504230145 | 59 | 75 | 5.2 | 6.1 | 0.00 | 0.00 | 0.00 | 65 | 1012.5 |
| 20260504230140 | 59 | 75 | 5.2 | 6.1 | 0.00 | 0.00 | 0.00 | 65 | 1012.5 |
| 20260504225704 | 59 | 85 | 4.3 | 5.2 | 0.00 | 0.00 | 0.00 | 64 | 1012.5 |
| 20260504225700 | 59 | 85 | 4.3 | 5.2 | 0.00 | 0.00 | 0.00 | 64 | 1012.5 |
| 20260504225224 | 59 | 87 | 5.2 | 6.1 | 0.00 | 0.00 | 0.00 | 64 | 1012.5 |
| 20260504225219 | 59 | 87 | 5.2 | 6.1 | 0.00 | 0.00 | 0.00 | 64 | 1012.5 |
| 20260504224743 | 59 | 96 | 4.3 | 6.1 | 0.00 | 0.00 | 0.00 | 63 | 1012.6 |
| 20260504224739 | 59 | 96 | 4.3 | 6.1 | 0.00 | 0.00 | 0.00 | 63 | 1012.6 |
| 20260504224303 | 59 | 86 | 5.2 | 7.0 | 0.00 | 0.00 | 0.00 | 63 | 1012.5 |
| 20260504224259 | 59 | 86 | 5.2 | 7.0 | 0.00 | 0.00 | 0.00 | 63 | 1012.5 |
| 20260504223823 | 59 | 72 | 5.2 | 6.1 | 0.00 | 0.00 | 0.00 | 64 | 1012.6 |
| 20260504223818 | 59 | 72 | 5.2 | 6.1 | 0.00 | 0.00 | 0.00 | 64 | 1012.6 |
| 20260504223342 | 59 | 63 | 6.1 | 7.8 | 0.00 | 0.00 | 0.00 | 63 | 0.1 |
| 20260504223338 | 59 | 63 | 6.1 | 7.8 | 0.00 | 0.00 | 0.00 | 63 | 1012.4 |
| 20260504222858 | 59 | 63 | 5.2 | 7.0 | 0.00 | 0.00 | 0.00 | 64 | 1012.5 |
| 20260504222421 | 59 | 45 | 7.0 | 7.0 | 0.00 | 0.00 | 0.00 | 62 | 1012.3 |
| 20260504222417 | 59 | 45 | 7.0 | 7.0 | 0.00 | 0.00 | 0.00 | 62 | 1012.3 |
| 20260504222129 | 59 | 45 | 7.0 | 7.0 | 0.00 | 0.00 | 0.00 | 62 | 1012.2 |
| 20260504221941 | 59 | 45 | 7.0 | 7.0 | 0.00 | 0.00 | 0.00 | 62 | 1012.2 |
| 20260504221937 | 59 | 45 | 7.0 | 7.0 | 0.00 | 0.00 | 0.00 | 62 | 1012.2 |
| 20260504221501 | 59 | 45 | 6.1 | 7.0 | 0.00 | 0.00 | 0.00 | 62 | 1012.3 |
| 20260504221456 | 59 | 45 | 6.1 | 7.0 | 0.00 | 0.00 | 0.00 | 62 | 1012.3 |
| 20260504221020 | 59 | 45 | 6.1 | 6.1 | 0.00 | 0.00 | 0.00 | 61 | 1012.4 |
| 20260504221016 | 59 | 45 | 6.1 | 6.1 | 0.00 | 0.00 | 0.00 | 61 | 1012.4 |
| 20260504220540 | 59 | 45 | 6.1 | 7.0 | 0.00 | 0.00 | 0.00 | 60 | 1012.4 |
| 20260504220536 | 59 | 45 | 6.1 | 7.0 | 0.00 | 0.00 | 0.00 | 60 | 1012.4 |
| 20260504220055 | 60 | 45 | 6.1 | 7.0 | 0.00 | 0.00 | 0.00 | 60 | 1012.4 |
| 20260504215619 | 60 | 45 | 7.0 | 7.0 | 0.00 | 0.00 | 0.00 | 60 | 1012.4 |
| 20260504215615 | 60 | 45 | 7.0 | 7.0 | 0.00 | 0.00 | 0.00 | 60 | 1012.4 |
| 20260504215138 | 60 | 45 | 7.0 | 7.0 | 0.00 | 0.00 | 0.00 | 59 | 1012.4 |
| 20260504215134 | 60 | 45 | 7.0 | 7.0 | 0.00 | 0.00 | 0.00 | 59 | 1012.4 |
| 20260504214658 | 60 | 45 | 7.0 | 8.7 | 0.00 | 0.00 | 0.00 | 59 | 1012.5 |
| 20260504214654 | 60 | 45 | 7.0 | 8.7 | 0.00 | 0.00 | 0.00 | 59 | 1012.5 |
| 20260504214217 | 60 | 45 | 7.0 | 7.8 | 0.00 | 0.00 | 0.00 | 59 | 1012.4 |
| 20260504214214 | 60 | 45 | 7.0 | 7.8 | 0.00 | 0.00 | 0.00 | 59 | 1012.4 |
| 20260504213733 | 60 | 45 | 7.0 | 7.8 | 0.00 | 0.00 | 0.00 | 59 | 1012.4 |
| 20260504213257 | 60 | 45 | 8.7 | 14.8 | 0.00 | 0.00 | 0.00 | 58 | 1012.4 |
| 20260504213253 | 60 | 45 | 8.7 | 14.8 | 0.00 | 0.00 | 0.00 | 58 | 1012.4 |
| 20260504212817 | 60 | 45 | 7.0 | 8.7 | 0.00 | 0.00 | 0.00 | 58 | 1012.5 |
| 20260504212812 | 60 | 45 | 7.0 | 8.7 | 0.00 | 0.00 | 0.00 | 58 | 1012.5 |
| 20260504212332 | 61 | 45 | 7.0 | 8.7 | 0.00 | 0.00 | 0.00 | 58 | 1012.5 |
| 20260504211851 | 61 | 45 | 7.8 | 7.8 | 0.00 | 0.00 | 0.00 | 57 | 1012.5 |
| 20260504211411 | 61 | 45 | 7.0 | 7.8 | 0.00 | 0.00 | 0.00 | 56 | 1012.5 |
| 20260504210931 | 61 | 45 | 8.7 | 13.0 | 0.00 | 0.00 | 0.00 | 56 | 1012.7 |
| 20260504210455 | 61 | 45 | 7.8 | 9.6 | 0.00 | 0.00 | 0.00 | 56 | 1012.6 |
| 20260504210450 | 61 | 45 | 7.8 | 9.6 | 0.00 | 0.00 | 0.00 | 56 | 1012.6 |
| 20260504210010 | 61 | 45 | 7.0 | 8.7 | 0.00 | 0.00 | 0.00 | 55 | 1012.7 |
| 20260504205529 | 61 | 45 | 7.0 | 8.7 | 0.00 | 0.00 | 0.00 | 54 | 1012.8 |
| 20260504205049 | 62 | 45 | 7.0 | 7.8 | 0.00 | 0.00 | 0.00 | 53 | 1012.8 |
| 20260504204608 | 62 | 42 | 5.2 | 7.8 | 0.00 | 0.00 | 0.00 | 53 | 1012.8 |
| 20260504204128 | 62 | 16 | 4.3 | 7.0 | 0.00 | 0.00 | 0.00 | 52 | 1012.8 |
| 20260504203647 | 62 | 3 | 4.3 | 5.2 | 0.00 | 0.00 | 0.00 | 52 | 1012.9 |
| 20260504203207 | 62 | 19 | 5.2 | 6.1 | 0.00 | 0.00 | 0.00 | 52 | 1013.0 |
| 20260504202726 | 63 | 33 | 5.2 | 6.1 | 0.00 | 0.00 | 0.00 | 51 | 1012.9 |
| 20260504202246 | 64 | 60 | 6.1 | 7.0 | 0.00 | 0.00 | 0.00 | 50 | 1012.9 |
| 20260504201809 | 64 | 68 | 6.1 | 7.0 | 0.00 | 0.00 | 0.00 | 50 | 1012.8 |
| 20260504201805 | 64 | 68 | 6.1 | 7.0 | 0.00 | 0.00 | 0.00 | 50 | 1012.8 |
| 20260504201324 | 64 | 58 | 6.1 | 7.0 | 0.00 | 0.00 | 0.00 | 50 | 1012.8 |
| 20260504200844 | 64 | 54 | 6.1 | 6.1 | 0.00 | 0.00 | 0.00 | 50 | 1012.9 |
| 20260504200403 | 64 | 45 | 5.2 | 6.1 | 0.00 | 0.00 | 0.00 | 50 | 1012.9 |
| 20260504195923 | 64 | 45 | 6.1 | 7.0 | 0.00 | 0.00 | 0.00 | 49 | 1012.9 |
| 20260504195442 | 64 | 45 | 6.1 | 7.0 | 0.00 | 0.00 | 0.00 | 50 | 1013.0 |
| 20260504195002 | 64 | 45 | 6.1 | 6.1 | 0.00 | 0.00 | 0.00 | 50 | 1012.9 |
| 20260504194526 | 64 | 45 | 5.2 | 6.1 | 0.00 | 0.00 | 0.00 | 50 | 1012.9 |
| 20260504194521 | 64 | 45 | 5.2 | 6.1 | 0.00 | 0.00 | 0.00 | 50 | 1012.9 |
| 20260504194040 | 64 | 45 | 6.1 | 7.0 | 0.00 | 0.00 | 0.00 | 50 | 1012.9 |
| 20260504193600 | 64 | 45 | 6.1 | 6.1 | 0.00 | 0.00 | 0.00 | 49 | 1012.8 |
| 20260504193119 | 64 | 45 | 5.2 | 6.1 | 0.00 | 0.00 | 0.00 | 49 | 1012.8 |
| 20260504192639 | 64 | 45 | 5.2 | 6.1 | 0.00 | 0.00 | 0.00 | 49 | 1012.8 |
| 20260504192203 | 64 | 45 | 5.2 | 6.1 | 0.00 | 0.00 | 0.00 | 49 | 1012.8 |
| 20260504192158 | 64 | 45 | 5.2 | 6.1 | 0.00 | 0.00 | 0.00 | 49 | 1012.8 |
| 20260504191818 | 64 | 45 | 5.2 | 6.1 | 0.00 | 0.00 | 0.00 | 49 | 1012.8 |
| 20260504191718 | 64 | 45 | 5.2 | 6.1 | 0.00 | 0.00 | 0.00 | 49 | 1012.8 |
| 20260504191316 | 64 | 45 | 6.1 | 6.1 | 0.00 | 0.00 | 0.00 | 49 | 1012.7 |
| 20260504191241 | 64 | 45 | 6.1 | 6.1 | 0.00 | 0.00 | 0.00 | 49 | 1012.7 |
| 20260504191237 | 64 | 45 | 6.1 | 6.1 | 0.00 | 0.00 | 0.00 | 49 | 1012.7 |
| 20260504190801 | 64 | 45 | 6.1 | 6.1 | 0.00 | 0.00 | 0.00 | 49 | 1012.6 |
| 20260504190756 | 64 | 45 | 6.1 | 6.1 | 0.00 | 0.00 | 0.00 | 49 | 1012.6 |
| 20260504190316 | 64 | 48 | 5.2 | 6.1 | 0.00 | 0.00 | 0.00 | 49 | 1012.6 |
| 20260504185835 | 64 | 45 | 5.2 | 6.1 | 0.00 | 0.00 | 0.00 | 49 | 1012.5 |
| 20260504185354 | 64 | 45 | 5.2 | 6.1 | 0.00 | 0.00 | 0.00 | 49 | 1012.6 |
| 20260504184919 | 64 | 45 | 5.2 | 6.1 | 0.00 | 0.00 | 0.00 | 49 | 1012.5 |
| 20260504184914 | 64 | 45 | 5.2 | 6.1 | 0.00 | 0.00 | 0.00 | 49 | 1012.5 |
| 20260504184433 | 64 | 45 | 5.2 | 6.1 | 0.00 | 0.00 | 0.00 | 49 | 1012.4 |
| 20260504183953 | 65 | 45 | 5.2 | 6.1 | 0.00 | 0.00 | 0.00 | 49 | 1012.4 |
| 20260504183617 | 65 | 51 | 6.1 | 6.1 | 0.00 | 0.00 | 0.00 | 49 | 1012.3 |
| 20260504183512 | 65 | 51 | 6.1 | 6.1 | 0.00 | 0.00 | 0.00 | 49 | 1012.3 |
| 20260504183031 | 65 | 45 | 6.1 | 6.1 | 0.00 | 0.00 | 0.00 | 49 | 1012.4 |
| 20260504182556 | 65 | 54 | 6.1 | 7.0 | 0.00 | 0.00 | 0.00 | 49 | 1012.4 |
| 20260504182551 | 65 | 54 | 6.1 | 7.0 | 0.00 | 0.00 | 0.00 | 49 | 1012.4 |
| 20260504182110 | 65 | 57 | 6.1 | 7.0 | 0.00 | 0.00 | 0.00 | 49 | 1012.4 |
| 20260504181630 | 66 | 48 | 6.1 | 7.8 | 0.00 | 0.00 | 0.00 | 49 | 1012.3 |
| 20260504181149 | 66 | 45 | 7.8 | 11.3 | 0.00 | 0.00 | 0.00 | 49 | 1012.4 |
| 20260504180708 | 66 | 48 | 7.8 | 10.4 | 0.00 | 0.00 | 0.00 | 49 | 1012.4 |
| 20260504180317 | 66 | 48 | 6.1 | 7.0 | 0.00 | 0.00 | 0.00 | 49 | 1012.3 |
| 20260504180227 | 66 | 48 | 6.1 | 7.0 | 0.00 | 0.00 | 0.00 | 49 | 1012.3 |
| 20260504175747 | 66 | 45 | 6.1 | 7.0 | 0.00 | 0.00 | 0.00 | 48 | 1012.2 |
| 20260504175306 | 67 | 45 | 6.1 | 7.0 | 0.00 | 0.00 | 0.00 | 48 | 1012.3 |
| 20260504174825 | 67 | 45 | 6.1 | 6.1 | 0.00 | 0.00 | 0.00 | 48 | 1012.2 |
| 20260504174345 | 67 | 45 | 6.1 | 6.1 | 0.00 | 0.00 | 0.00 | 47 | 1012.3 |
| 20260504173904 | 67 | 45 | 5.2 | 6.1 | 0.00 | 0.00 | 0.00 | 46 | 1012.3 |
| 20260504173423 | 68 | 45 | 5.2 | 6.1 | 0.00 | 0.00 | 0.00 | 45 | 1012.4 |
| 20260504172942 | 68 | 45 | 6.1 | 7.0 | 0.00 | 0.00 | 0.00 | 46 | 1012.4 |
| 20260504172543 | 68 | 48 | 6.1 | 7.0 | 0.00 | 0.00 | 0.00 | 46 | 1012.4 |
| 20260504172502 | 68 | 48 | 6.1 | 7.0 | 0.00 | 0.00 | 0.00 | 46 | 1012.4 |
| 20260504172021 | 68 | 48 | 6.1 | 7.0 | 0.00 | 0.00 | 0.00 | 45 | 1012.5 |
| 20260504171540 | 68 | 48 | 6.1 | 7.0 | 0.00 | 0.00 | 0.00 | 46 | 1012.4 |
| 20260504171059 | 69 | 46 | 6.1 | 7.0 | 0.00 | 0.00 | 0.00 | 45 | 1012.5 |
| 20260504170618 | 69 | 46 | 6.1 | 7.0 | 0.00 | 0.00 | 0.00 | 45 | 1012.5 |
| 20260504170138 | 69 | 48 | 7.0 | 8.7 | 0.00 | 0.00 | 0.00 | 45 | 1012.5 |
| 20260504160139 | 71 | 57 | 7.0 | 7.8 | 0.00 | 0.00 | 0.00 | 43 | 1012.7 |
| 20260504150915 | 73 | 81 | 5.2 | 7.0 | 0.00 | 0.00 | 0.00 | 39 | 1012.9 |
| 20260504150434 | 74 | 75 | 3.5 | 4.3 | 0.00 | 0.00 | 0.00 | 38 | 1012.8 |
| 20260504141259 | 80 | 54 | 4.3 | 5.2 | 0.00 | 0.00 | 0.00 | 34 | 1013.2 |
| 20260504140817 | 82 | 107 | 2.6 | 7.0 | 0.00 | 0.00 | 0.00 | 32 | 1013.2 |
| 20260504140336 | 80 | 84 | 1.7 | 3.5 | 0.00 | 0.00 | 0.00 | 34 | 1013.2 |
| 20260504130752 | 76 | 260 | 4.3 | 7.0 | 0.00 | 0.00 | 0.00 | 34 | 1013.7 |
| 20260504130718 | 76 | 260 | 4.3 | 7.0 | 0.00 | 0.00 | 0.00 | 34 | 1013.7 |
| 20260504130237 | 78 | 274 | 3.5 | 6.1 | 0.00 | 0.00 | 0.00 | 35 | 1013.7 |
| 20260504120137 | 77 | 224 | 3.5 | 5.2 | 0.00 | 0.00 | 0.00 | 35 | 1014.1 |
| 20260504110516 | 75 | 196 | 1.7 | 4.3 | 0.00 | 0.00 | 0.00 | 36 | 1014.8 |
| 20260504100417 | 73 | 64 | 1.7 | 2.6 | 0.00 | 0.00 | 0.00 | 40 | 1015.3 |
| 20260504081817 | 68 | 315 | 4.3 | 6.1 | 0.00 | 0.00 | 0.00 | 44 | 1015.3 |
| 20260504081632 | 68 | 315 | 4.3 | 6.1 | 0.00 | 0.00 | 0.00 | 44 | 1015.3 |
| 20260504081151 | 68 | 309 | 5.2 | 6.1 | 0.00 | 0.00 | 0.00 | 45 | 1015.4 |
| 20260504080710 | 68 | 315 | 4.3 | 5.2 | 0.00 | 0.00 | 0.00 | 45 | 1015.4 |
| 20260504080229 | 69 | 309 | 5.2 | 6.1 | 0.00 | 0.00 | 0.00 | 46 | 1015.3 |
| 20260504070141 | 65 | 229 | 2.6 | 5.2 | 0.00 | 0.00 | 0.00 | 52 | 1015.1 |
| 20260504070136 | 65 | 229 | 2.6 | 5.2 | 0.00 | 0.00 | 0.00 | 52 | 1015.1 |
| 20260504050447 | 55 | 241 | 6.1 | 8.7 | 0.00 | 0.00 | 0.00 | 59 | 1014.8 |
| 20260504050442 | 55 | 241 | 6.1 | 8.7 | 0.00 | 0.00 | 0.00 | 59 | 1014.8 |
| 20260504050002 | 57 | 255 | 4.3 | 6.1 | 0.00 | 0.00 | 0.00 | 55 | 1014.8 |
| 20260504045526 | 57 | 356 | 0.9 | 1.7 | 0.00 | 0.00 | 0.00 | 56 | 1014.6 |
| 20260504045522 | 57 | 356 | 0.9 | 1.7 | 0.00 | 0.00 | 0.00 | 56 | 1014.6 |
| 20260504045045 | 57 | 36 | 0.9 | 1.7 | 0.00 | 0.00 | 0.00 | 56 | 1014.5 |
| 20260504045041 | 57 | 36 | 0.9 | 1.7 | 0.00 | 0.00 | 0.00 | 56 | 1014.5 |
| 20260504044605 | 57 | 215 | 0.9 | 1.7 | 0.00 | 0.00 | 0.00 | 56 | 1014.5 |
| 20260504044601 | 57 | 215 | 0.9 | 1.7 | 0.00 | 0.00 | 0.00 | 56 | 1014.5 |
| 20260504044125 | 56 | 180 | 0.9 | 0.9 | 0.00 | 0.00 | 0.00 | 56 | 1014.4 |
| 20260504044121 | 56 | 180 | 0.9 | 0.9 | 0.00 | 0.00 | 0.00 | 56 | 1014.4 |
| 20260504043645 | 56 | 347 | 0.9 | 1.7 | 0.00 | 0.00 | 0.00 | 56 | 1014.5 |
| 20260504043640 | 56 | 347 | 0.9 | 1.7 | 0.00 | 0.00 | 0.00 | 56 | 1014.5 |
| 20260504043200 | 55 | 0 | 1.7 | 2.6 | 0.00 | 0.00 | 0.00 | 57 | 1014.4 |
| 20260504042724 | 55 | 353 | 1.7 | 2.6 | 0.00 | 0.00 | 0.00 | 58 | 1014.3 |
| 20260504042720 | 55 | 353 | 1.7 | 2.6 | 0.00 | 0.00 | 0.00 | 58 | 1014.3 |
| 20260504042240 | 55 | 356 | 1.7 | 3.5 | 0.00 | 0.00 | 0.00 | 58 | 1014.3 |
| 20260504041759 | 54 | 347 | 2.6 | 4.3 | 0.00 | 0.00 | 0.00 | 58 | 1014.3 |